Location: Grand Moustoir
(47.8355°N, 3.3120°W)
Time: 19:06:13
(UTC+00:00)

SKYMED 2 - Pass Details

Date: 20 January 2020
Orbit: 621 x 623 km, 97.9° (Epoch: 28 February)

Event Time Altitude Azimuth Distance (km) Brightness Sun altitude
Rises 06:00:16 0° 188° (S) 2,892 7.0 -18.8°
Reaches altitude 10° 06:02:37 10° 198° (SSW) 1,991 6.1 -18.4°
Enters shadow 06:06:26 34° 260° (W) 1,038 4.2 -17.7°
